Regional Weather Roundup
Issued by NWS

Home | Current Version | Previous Version | Graphics & Text | Print | Product List | Glossary On
Versions: 1 2 3 4 5 6 7 8 9 10 11 12 13 14 15 16 17 18 19 20 21 22 23 24 25 26 27 28 29 30 31 32 33 34 35 36 37 38 39 40 41 42 43 44 45 46 47 48 49 50
658
ASUS43 KOAX 250110
RWRNE

WEATHER ROUNDUP FOR NEBRASKA
NATIONAL WEATHER SERVICE OMAHA NE
800 PM CDT TUE MAY 24 2016

NOTES: SATELLITE DATA IS BEING USED TO AUGMENT CLOUD COVER ABOVE
       12000 FEET.
       "FAIR" INDICATES FEW OR NO CLOUDS BELOW 12,000 FEET WITH NO
       SIGNIFICANT WEATHER AND/OR OBSTRUCTIONS TO VISIBILITY.

  * THESE STATIONS DO NOT REPORT WEATHER SUCH AS RAIN...SNOW OR FOG.

NEZ001>004-019>022-054>056-250200-
NEBRASKA PANHANDLE

CITY           SKY/WX    TMP DP  RH WIND       PRES   REMARKS
SCOTTSBLUFF    LGT RAIN  60  48  64 SE25G46   29.78F
ALLIANCE       CLOUDY    60  43  53 W38G54    29.84R SQUALL  THUNDER
CHADRON        CLOUDY    56  48  74 N20G25    29.85R
KIMBALL        CLOUDY    58  49  70 NE7       29.86F
SIDNEY         LGT RAIN  55  50  83 SE9       29.85F
$$

NEZ057>060-069>072-079>082-250200-
SOUTHWEST NEBRASKA

CITY           SKY/WX    TMP DP  RH WIND       PRES   REMARKS
NORTH PLATTE   CLOUDY    72  59  63 SE8       29.80F
IMPERIAL       CLOUDY    71  59  65 E14       29.77F
LEXINGTON      PTCLDY    74  58  57 SE9       29.80F
MCCOOK         PTCLDY    74  60  61 SE14      29.79S
OGALLALA       CLOUDY    72  57  60 SE9       29.79F
$$

NEZ005>010-023>029-035>040-094-250200-
NORTH CENTRAL NEBRASKA

CITY           SKY/WX    TMP DP  RH WIND       PRES   REMARKS
VALENTINE      PTSUNNY   76  50  40 SE15      29.78F
AINSWORTH      CLOUDY    74  52  44 SE13      29.81S
BROKEN BOW     CLEAR     74  58  57 SE12      29.82F
O`NEILL        CLEAR     78  55  45 SE5       29.81F
ORD            CLEAR     75  58  55 SE7       29.80F
THEDFORD       PTSUNNY   76  53  44 SE10      29.81F
$$

NEZ041-046>049-061>064-073>077-083>087-250200-
SOUTH CENTRAL NEBRASKA

CITY           SKY/WX    TMP DP  RH WIND       PRES   REMARKS
GRAND ISLAND   CLOUDY    76  62  62 S7        29.84S
AURORA         CLOUDY    77  62  59 SE7       29.83S
HASTINGS       CLOUDY    77  59  53 S10       29.84R
HEBRON         CLEAR     76  61  59 S6        29.84R
HOLDREGE       CLOUDY    75  59  58 SE15      29.80F
KEARNEY *      CLOUDY    75  57  53 SE13G20   29.83F
YORK           MOCLDY    77  61  57 SE7       29.83F
$$

NEZ011>018-030>034-042>045-250200-
NORTHEAST NEBRASKA

CITY           SKY/WX    TMP DP  RH WIND       PRES   REMARKS
NORFOLK        CLEAR     77  56  48 SE16      29.83S
ALBION         CLEAR     76  56  48 SE10      29.82F
BLAIR          CLEAR     77  61  58 SE5       29.86F
FREMONT        CLEAR     77  58  53 SE6       29.86S
TEKAMAH        CLEAR     79  59  50 S10       29.84F
WAYNE          CLEAR     78  60  53 SE10      29.85S
$$

NEZ050>053-065>068-078-088>093-250200-
SOUTHEAST NEBRASKA

CITY           SKY/WX    TMP DP  RH WIND       PRES   REMARKS
LINCOLN        PTCLDY    79  61  53 E13       29.84F
OMAHA EPPLEY   PTCLDY    79  60  52 S10       29.85F
BEATRICE       CLEAR     79  61  54 SE9       29.83F
FALLS CITY     CLEAR     79  62  56 SE9       29.85S
NEBRASKA CITY  CLEAR     77  61  57 E6        29.86F
PLATTSMOUTH    PTCLDY    79  61  54 SE3       29.87F
$$

NEZ044-045-051>053-067-250200-
OMAHA AREA

CITY           SKY/WX    TMP DP  RH WIND       PRES   REMARKS
OMAHA EPPLEY   PTCLDY    79  60  52 S10       29.85F
BLAIR          CLEAR     77  61  58 SE5       29.86F
FREMONT        CLEAR     77  58  53 SE6       29.86S
MILLARD        CLEAR     78  60  53 SE5       29.85F
OFFUTT AFB     CLEAR     78  60  54 SE5       29.85S
PLATTSMOUTH    PTCLDY    79  61  54 SE3       29.87F
WAHOO          FAIR      77  62  59 E8        29.85F
$$




USA.gov is the U.S. government's official web portal to all federal, state and local government web resources and services.